Franklin, NC

10:07 AM EST on November 20, 2019 (GMT -0500)
Franklin

Weather History for K1A5 - September, 2019

Change the Weather History Date:

Sunday, September 22, 2019

  Actual Average (WUND) Record (WUND)
Temperature  
Mean Temperature 69 °F -  
Max Temperature 84 °F - - (-1)
Min Temperature 54 °F - - (-1)
Cooling Degree Days 4    
Growing Degree Days 19 (Base 50)    
Moisture  
Dew Point 56 °F    
Average Humidity 78    
Maximum Humidity 98    
Minimum Humidity 33    
Precipitation  
Precipitation 0.00 in - - ()
Sea Level Pressure  
Sea Level Pressure 30.29 in    
Wind  
Wind Speed 0 mph ()    
Max Wind Speed 6 mph    
Max Gust Speed -    
Visibility 6.3 miles    
Events Fog    
Averages and records for this station are not official NWS values.
T = Trace of Precipitation, MM = Missing Value Source: Averaged Metar Reports

Daily Weather History Graph

Daily Weather History Graph

Search for Another Location

Airport or City:

Astronomy

Sep. 22, 2019 Rise Set
Actual Time 7:21 AM EDT 7:30 PM EDT
Civil Twilight 6:56 AM EDT 7:56 PM EDT
Nautical Twilight 6:26 AM EDT 8:25 PM EDT
Astronomical Twilight 5:56 AM EDT 8:55 PM EDT
Moon 12:23 AM EDT (9/22) 3:11 PM EDT (9/22)
Length of Visible Light 12h 59m
Length of Day
12h 09m
Last Quarter, 44% of the Moon is Illuminated
Sep 22
Last Quarter
Sep 28
New
Oct 5
First Quarter
Oct 13
Full
Oct 21
Last Quarter

Hourly Weather History & Observations

Time (EDT) Temp. Heat Index Dew Point Humidity Pressure Visibility Wind Dir Wind Speed Gust Speed Precip Events Conditions
12:15 AM 57.7 °F - 56.8 °F 97% 30.35 in 3.0 mi Calm Calm - N/A   Clear
12:35 AM 57.4 °F - 56.5 °F 97% 30.35 in 1.0 mi Calm Calm - N/A   Mist
12:55 AM 56.7 °F - 55.8 °F 97% 30.35 in 4.0 mi Calm Calm - N/A   Clear
1:15 AM 57.2 °F - 56.3 °F 97% 30.35 in 5.0 mi Calm Calm - N/A   Scattered Clouds
1:35 AM 56.1 °F - 55.2 °F 97% 30.34 in 0.8 mi Calm Calm - N/A   Mostly Cloudy
1:55 AM 56.1 °F - 55.4 °F 97% 30.34 in 2.0 mi Calm Calm - N/A   Clear
2:15 AM 55.8 °F - 55.0 °F 97% 30.34 in 5.0 mi Calm Calm - N/A   Clear
2:35 AM 55.2 °F - 54.5 °F 97% 30.33 in 7.0 mi Calm Calm - N/A   Clear
2:55 AM 55.4 °F - 54.5 °F 97% 30.33 in 2.5 mi Calm Calm - N/A   Clear
3:15 AM 54.5 °F - 53.6 °F 97% 30.33 in 5.0 mi Calm Calm - N/A   Scattered Clouds
3:35 AM 54.7 °F - 53.8 °F 97% 30.33 in 7.0 mi Calm Calm - N/A   Overcast
3:55 AM 55.4 °F - 54.5 °F 97% 30.33 in 5.0 mi Calm Calm - N/A   Overcast
4:15 AM 56.7 °F - 55.9 °F 97% 30.33 in 0.2 mi Calm Calm - N/A Fog Fog
4:35 AM 57.2 °F - 56.3 °F 97% 30.33 in 0.2 mi Calm Calm - N/A Fog Fog
5:15 AM 57.4 °F - 56.7 °F 97% 30.33 in 0.2 mi Calm Calm - N/A Fog Fog
5:35 AM 57.6 °F - 56.8 °F 97% 30.33 in 0.2 mi Calm Calm - N/A Fog Fog
5:55 AM 57.2 °F - 56.5 °F 97% 30.33 in 0.2 mi Calm Calm - N/A Fog Fog
6:15 AM 57.2 °F - 56.3 °F 97% 30.33 in 0.2 mi Calm Calm - N/A Fog Fog
6:35 AM 57.2 °F - 56.5 °F 97% 30.34 in 0.2 mi Calm Calm - N/A Fog Fog
6:55 AM 57.2 °F - 56.3 °F 97% 30.34 in 0.2 mi Calm Calm - N/A Fog Fog
7:15 AM 57.2 °F - 56.3 °F 97% 30.34 in 0.2 mi Calm Calm - N/A Fog Fog
7:35 AM 56.8 °F - 56.1 °F 97% 30.34 in 0.2 mi Calm Calm - N/A Fog Fog
7:55 AM 56.8 °F - 56.3 °F 98% 30.35 in 0.2 mi Calm Calm - N/A Fog Fog
8:15 AM 56.8 °F - 56.3 °F 98% 30.36 in 0.2 mi Calm Calm - N/A Fog Fog
8:35 AM 57.2 °F - 56.5 °F 97% 30.36 in 0.2 mi Calm Calm - N/A Fog Fog
8:55 AM 57.4 °F - 56.8 °F 98% 30.36 in 0.2 mi Calm Calm - N/A Fog Fog
9:15 AM 57.6 °F - 56.8 °F 97% 30.37 in 0.2 mi Calm Calm - N/A Fog Fog
9:35 AM 57.9 °F - 57.2 °F 97% 30.37 in 0.2 mi Calm Calm - N/A Fog Fog
9:55 AM 59.0 °F - 58.3 °F 97% 30.37 in 0.5 mi Calm Calm - N/A Fog Fog
10:15 AM 60.1 °F - 59.2 °F 97% 30.36 in 1.5 mi Calm Calm - N/A   Overcast
10:35 AM 62.1 °F - 60.3 °F 94% 30.35 in 10.0 mi Calm Calm - N/A   Mostly Cloudy
10:55 AM 64.0 °F - 60.3 °F 87% 30.35 in 10.0 mi Calm Calm - N/A   Scattered Clouds
11:15 AM 67.5 °F - 60.6 °F 79% 30.34 in 10.0 mi Calm Calm - N/A   Clear
11:35 AM 69.4 °F - 60.8 °F 74% 30.33 in 10.0 mi Calm Calm - N/A   Clear
11:55 AM 75.0 °F - 60.1 °F 60% 30.32 in 10.0 mi Calm Calm - N/A   Clear
12:15 PM 76.6 °F - 58.8 °F 54% 30.31 in 10.0 mi Calm Calm - N/A   Clear
12:55 PM 80.1 °F 80.7 °F 58.5 °F 48% 30.29 in 10.0 mi ESE 4.6 mph - N/A   Clear
1:15 PM 81.1 °F 80.9 °F 55.2 °F 41% 30.27 in 10.0 mi West 3.5 mph - N/A   Clear
1:35 PM 81.5 °F 81.0 °F 55.2 °F 40% 30.27 in 10.0 mi Calm Calm - N/A   Clear
1:55 PM 82.6 °F 81.5 °F 53.2 °F 36% 30.26 in 10.0 mi SSW 5.8 mph - N/A   Clear
2:15 PM 82.4 °F 81.4 °F 53.6 °F 37% 30.25 in 10.0 mi Calm Calm - N/A   Clear
2:55 PM 83.1 °F 81.8 °F 53.1 °F 35% 30.24 in 10.0 mi South 3.5 mph - N/A   Clear
3:15 PM 83.7 °F 82.3 °F 53.2 °F 35% 30.23 in 10.0 mi SSW 3.5 mph - N/A   Scattered Clouds
3:35 PM 83.7 °F - 52.0 °F 33% 30.22 in 10.0 mi Calm Calm - N/A   Scattered Clouds
3:55 PM 83.1 °F 81.9 °F 53.6 °F 36% 30.21 in 10.0 mi Calm Calm - N/A   Clear
4:15 PM 84.4 °F 83.1 °F 54.5 °F 36% 30.21 in 10.0 mi SSE 4.6 mph - N/A   Clear
4:35 PM 83.7 °F 82.4 °F 54.1 °F 36% 30.21 in 10.0 mi Calm Calm - N/A   Clear
4:55 PM 83.8 °F 82.7 °F 54.9 °F 37% 30.21 in 10.0 mi South 5.8 mph - N/A   Clear
5:15 PM 83.3 °F 82.3 °F 55.4 °F 38% 30.21 in 10.0 mi Calm Calm - N/A   Clear
5:35 PM 83.3 °F 82.6 °F 56.3 °F 40% 30.20 in 10.0 mi Calm Calm - N/A   Clear
5:55 PM 82.2 °F 81.6 °F 55.4 °F 40% 30.20 in 10.0 mi Calm Calm - N/A   Clear
6:15 PM 81.5 °F 81.1 °F 55.6 °F 41% 30.20 in 10.0 mi Calm Calm - N/A   Clear
6:35 PM 80.4 °F 80.4 °F 55.6 °F 42% 30.20 in 10.0 mi South 3.5 mph - N/A   Clear
6:55 PM 77.5 °F - 57.4 °F 50% 30.20 in 10.0 mi Calm Calm - N/A   Clear
7:15 PM 74.5 °F - 57.7 °F 56% 30.21 in 10.0 mi Calm Calm - N/A   Clear
7:35 PM 70.5 °F - 59.0 °F 67% 30.21 in 10.0 mi Calm Calm - N/A   Clear
7:55 PM 66.9 °F - 59.2 °F 76% 30.22 in 10.0 mi Calm Calm - N/A   Clear
8:15 PM 64.6 °F - 59.0 °F 82% 30.22 in 10.0 mi Calm Calm - N/A   Clear
8:35 PM 62.8 °F - 58.6 °F 86% 30.23 in 10.0 mi Calm Calm - N/A   Clear
8:55 PM 61.9 °F - 58.1 °F 87% 30.23 in 10.0 mi Calm Calm - N/A   Clear
9:15 PM 59.9 °F - 57.2 °F 91% 30.23 in 10.0 mi Calm Calm - N/A   Clear
9:35 PM 59.5 °F - 57.2 °F 92% 30.24 in 10.0 mi Calm Calm - N/A   Clear
9:55 PM 58.8 °F - 57.4 °F 95% 30.24 in 10.0 mi Calm Calm - N/A   Clear
10:15 PM 58.3 °F - 57.0 °F 96% 30.25 in 10.0 mi Calm Calm - N/A   Clear
10:35 PM 58.1 °F - 56.8 °F 96% 30.25 in 10.0 mi Calm Calm - N/A   Clear
10:55 PM 57.4 °F - 55.9 °F 95% 30.25 in 10.0 mi Calm Calm - N/A   Clear
11:15 PM 56.5 °F - 55.2 °F 96% 30.25 in 7.0 mi Calm Calm - N/A   Clear
11:35 PM 55.9 °F - 54.7 °F 96% 30.25 in 10.0 mi Calm Calm - N/A   Clear